Location: Unspecified
(0.0000°N, 0.0000°E)
Time: 19:33:31
(UTC+00:00)

THORAD DELTA 1 DEB - Pass Details

Date: 19 February 2026
Orbit: 1451 x 1738 km, 101.5° (Epoch: 9 March)

Event Time Altitude Azimuth Distance (km) Brightness Sun altitude
Rises 20:55:25 0° 175° (S) 4,713 ? -39.5°
Reaches altitude 10° 20:58:23 10° 179° (S) 3,694 ? -40.2°
Maximum altitude 21:06:41 55° 254° (WSW) 1,729 ? -42.2°
Drops below altitude 10° 21:14:43 10° 330° (NNW) 3,565 ? -44.2°
Sets 21:17:33 0° 334° (NNW) 4,538 ? -44.9°
